Monterey, CA

9:44 AM PDT on May 22, 2018 (GMT -0700)
Monterey Peninsula

Weather History for KMRY - November, 2011

Change the Weather History Date:

Wednesday, November 30, 2011

  Actual Average Record
Temperature  
Mean Temperature 55 °F 53 °F  
Max Temperature 63 °F 62 °F 69 °F (2008)
Min Temperature 46 °F 44 °F 34 °F (2006)
Degree Days  
Heating Degree Days 10    
Month to date heating degree days 353  
Since 1 July heating degree days 911  
Cooling Degree Days 0    
Month to date cooling degree days 0  
Year to date cooling degree days 33  
Growing Degree Days 4 (Base 50)    
Moisture  
Dew Point 40 °F    
Average Humidity 60    
Maximum Humidity 93    
Minimum Humidity 27    
Precipitation  
Precipitation 0.00 in - 1.95 in (2012)
Month to date precipitation 1.32  
Year to date precipitation 16.39  
Since 1 July precipitation 3.60  
Sea Level Pressure  
Sea Level Pressure 30.17 in    
Wind  
Wind Speed 5 mph (North)    
Max Wind Speed 15 mph    
Max Gust Speed 22 mph    
Visibility 9 miles    
Events      
T = Trace of Precipitation, MM = Missing Value Source: NWS Daily Summary

Daily Weather History Graph

Daily Weather History Graph

Search for Another Location

Airport or City:

Astronomy

Nov. 30, 2011 Rise Set
Actual Time 6:59 AM PST 4:51 PM PST
Civil Twilight 6:31 AM PST 5:20 PM PST
Nautical Twilight 5:59 AM PST 5:52 PM PST
Astronomical Twilight 5:28 AM PST 6:23 PM PST
Moon 11:25 AM PST (11/30) 10:49 PM PST (11/30)
Length of Visible Light 10h 48m
Length of Day
9h 52m
Waxing Crescent, 34% of the Moon is Illuminated
Nov 30
Waxing Crescent
Dec 2
First Quarter
Dec 10
Full
Dec 17
Last Quarter
Dec 24
New

Hourly Weather History & Observations

Time (PST) Temp. Dew Point Humidity Pressure Visibility Wind Dir Wind Speed Gust Speed Precip Events Conditions
12:54 AM 46.9 °F 43.0 °F 86% 30.20 in 10.0 mi Calm Calm - N/A   Clear
1:38 AM 46.4 °F 42.8 °F 87% 30.17 in 9.0 mi Calm Calm - N/A   Scattered Clouds
1:50 AM 46.4 °F 44.6 °F 93% 30.17 in 8.0 mi Calm Calm - N/A   Mostly Cloudy
1:54 AM 46.9 °F 44.1 °F 90% 30.21 in 8.0 mi Calm Calm - N/A   Mostly Cloudy
2:35 AM 51.8 °F 48.2 °F 88% 30.17 in 6.0 mi Calm Calm - N/A   Overcast
2:54 AM 51.1 °F 48.0 °F 89% 30.21 in 6.0 mi Calm Calm - N/A   Overcast
3:54 AM 51.1 °F 48.0 °F 89% 30.20 in 7.0 mi Calm Calm - N/A   Mostly Cloudy
4:54 AM 51.1 °F 48.0 °F 89% 30.19 in 7.0 mi Calm Calm - N/A   Mostly Cloudy
5:30 AM 48.2 °F 46.4 °F 93% 30.14 in 8.0 mi ESE 3.5 mph - N/A   Overcast
5:54 AM 50.0 °F 48.0 °F 93% 30.18 in 7.0 mi Calm Calm - N/A   Overcast
6:26 AM 50.0 °F 48.2 °F 94% 30.14 in 7.0 mi SSE 3.5 mph - N/A   Overcast
6:54 AM 48.9 °F 46.0 °F 90% 30.18 in 6.0 mi East 3.5 mph - N/A   Overcast
7:54 AM 50.0 °F 46.9 °F 89% 30.20 in 3.0 mi ENE 4.6 mph - N/A   Overcast
8:02 AM 50.0 °F 46.4 °F 87% 30.16 in 5.0 mi East 5.8 mph - N/A   Scattered Clouds
8:54 AM 54.0 °F 46.0 °F 75% 30.19 in 10.0 mi ENE 6.9 mph - N/A   Clear
9:54 AM 57.9 °F 44.1 °F 60% 30.21 in 10.0 mi North 5.8 mph - N/A   Clear
10:54 AM 59.0 °F 41.0 °F 51% 30.20 in 10.0 mi NNW 4.6 mph - N/A   Clear
11:54 AM 59.0 °F 39.9 °F 49% 30.20 in 10.0 mi West 5.8 mph - N/A   Clear
12:54 PM 61.0 °F 37.9 °F 42% 30.16 in 10.0 mi NW 8.1 mph - N/A   Clear
1:54 PM 62.1 °F 37.0 °F 39% 30.14 in 10.0 mi WNW 10.4 mph 19.6 mph N/A   Clear
2:54 PM 62.6 °F 37.4 °F 39% 30.09 in 10.0 mi WNW 10.4 mph 21.9 mph N/A   Clear
3:54 PM 59.0 °F 44.1 °F 58% 30.13 in 10.0 mi WNW 9.2 mph 16.1 mph N/A   Clear
4:54 PM 61.0 °F 36.0 °F 39% 30.12 in 10.0 mi NW 5.8 mph - N/A   Clear
5:54 PM 62.1 °F 28.0 °F 28% 30.13 in 10.0 mi North 9.2 mph - N/A   Clear
6:54 PM 61.0 °F 26.1 °F 26% 30.14 in 10.0 mi Calm Calm - N/A   Clear
7:54 PM 59.0 °F 30.9 °F 35% 30.14 in 10.0 mi Variable 4.6 mph - N/A   Clear
8:54 PM 60.1 °F 30.0 °F 32% 30.15 in 10.0 mi North 8.1 mph - N/A   Clear
9:54 PM 59.0 °F 27.0 °F 29% 30.16 in 10.0 mi North 6.9 mph - N/A   Clear
10:54 PM 57.2 °F 24.8 °F 29% 30.13 in 10.0 mi North 6.9 mph - N/A   Clear
11:54 PM 57.9 °F 30.9 °F 36% 30.17 in 10.0 mi NNW 6.9 mph - N/A   Clear